Total_Precipitation_Accumulation
0.04 0.00 0.00 0.00 0.00 0.00 0.00 0.00 0.00 0.00 0.00 0.00 0.00 0.00 0.00 0.00 0.00 0.00 0.00 0.00 0.00 0.01 0.05 0.05 0.02 0.00 0.00 0.00 0.00 0.00 0.00 0.00 0.00 0.00 0.00 0.00 0.00 0.00 0.01 0.01 0.02 0.08 0.17
0.10 0.04 0.03 0.00 0.00 0.00 0.00 0.00 0.00 0.00 0.00 0.00 0.00 0.00 0.00 0.00 0.00 0.00 0.00 0.00 0.00 0.00 0.02 0.02 0.01 0.00 0.00 0.00 0.00 0.00 0.00 0.00 0.01 0.00 0.00 0.00 0.00 0.00 0.00 0.01 0.00 0.02 0.12
0.11 0.03 0.04 0.01 0.00 0.00 0.00 0.00 0.00 0.00 0.00 0.00 0.00 0.00 0.00 0.00 0.00 0.00 0.00 0.00 0.00 0.00 0.00 0.00 0.00 0.00 0.00 0.00 0.00 0.00 0.00 0.00 0.00 0.01 0.01 0.01 0.01 0.00 0.00 0.00 0.01 0.00 0.01
0.01 0.00 0.01 0.00 0.00 0.00 0.00 0.00 0.00 0.00 0.00 0.00 0.00 0.00 0.00 0.00 0.00 0.00 0.00 0.00 0.00 0.00 0.00 0.00 0.00 0.00 0.00 0.00 0.00 0.00 0.00 0.00 0.00 0.00 0.01 0.01 0.01 0.01 0.00 0.00 0.00 0.01 0.00
0.00 0.00 0.00 0.00 0.00 0.00 0.00 0.00 0.00 0.00 0.00 0.00 0.00 0.00 0.00 0.00 0.00 0.00 0.00 0.00 0.00 0.00 0.00 0.00 0.00 0.00 0.00 0.00 0.00 0.00 0.00 0.00 0.00 0.00 0.00 0.00 0.01 0.02 0.01 0.01 0.00 0.01 0.01
0.04 0.03 0.01 0.01 0.00 0.00 0.00 0.00 0.00 0.00 0.00 0.00 0.00 0.00 0.00 0.00 0.00 0.00 0.00 0.00 0.00 0.00 0.00 0.00 0.00 0.00 0.00 0.00 0.00 0.00 0.00 0.00 0.00 0.00 0.00 0.00 0.00 0.01 0.01 0.02 0.01 0.01 0.01
0.12 0.06 0.02 0.02 0.01 0.01 0.00 0.00 0.00 0.00 0.00 0.00 0.00 0.00 0.00 0.00 0.00 0.00 0.00 0.00 0.00 0.00 0.00 0.00 0.00 0.00 0.00 0.00 0.00 0.00 0.00 0.00 0.00 0.00 0.00 0.00 0.01 0.00 0.01 0.01 0.01 0.01 0.01
0.07 0.07 0.05 0.04 0.03 0.02 0.00 0.00 0.00 0.00 0.00 0.00 0.00 0.00 0.00 0.00 0.00 0.00 0.00 0.00 0.00 0.00 0.00 0.00 0.00 0.00 0.00 0.00 0.00 0.00 0.00 0.00 0.00 0.00 0.00 0.00 0.00 0.00 0.01 0.02 0.01 0.01 0.01
0.05 0.06 0.04 0.03 0.04 0.03 0.01 0.00 0.00 0.00 0.00 0.00 0.00 0.00 0.00 0.00 0.00 0.00 0.00 0.00 0.00 0.00 0.00 0.00 0.00 0.00 0.00 0.00 0.00 0.00 0.00 0.00 0.00 0.00 0.00 0.00 0.00 0.00 0.01 0.02 0.02 0.02 0.02
0.07 0.19 0.07 0.02 0.01 0.01 0.01 0.03 0.01 0.01 0.01 0.00 0.01 0.01 0.00 0.00 0.00 0.00 0.00 0.00 0.00 0.00 0.00 0.00 0.00 0.00 0.00 0.00 0.00 0.00 0.00 0.00 0.00 0.00 0.00 0.00 0.00 0.00 0.02 0.02 0.03 0.03 0.03
0.03 0.11 0.09 0.06 0.02 0.05 0.08 0.11 0.11 0.12 0.13 0.15 0.09 0.04 0.02 0.01 0.01 0.01 0.01 0.00 0.00 0.00 0.00 0.00 0.00 0.00 0.00 0.00 0.00 0.00 0.00 0.00 0.00 0.00 0.00 0.00 0.00 0.00 0.02 0.04 0.04 0.04 0.04
0.17 0.21 0.19 0.16 0.13 0.14 0.23 0.27 0.29 0.21 0.17 0.12 0.09 0.06 0.06 0.08 0.04 0.02 0.01 0.01 0.00 0.00 0.00 0.00 0.00 0.00 0.00 0.00 0.00 0.00 0.00 0.00 0.00 0.00 0.00 0.01 0.01 0.01 0.01 0.03 0.05 0.06 0.05
0.30 0.28 0.26 0.25 0.22 0.31 0.36 0.30 0.23 0.19 0.19 0.14 0.15 0.21 0.18 0.10 0.06 0.04 0.02 0.01 0.01 0.00 0.00 0.00 0.00 0.00 0.00 0.00 0.00 0.00 0.00 0.00 0.00 0.00 0.01 0.02 0.02 0.02 0.03 0.03 0.06 0.10 0.12
0.31 0.43 0.39 0.42 0.33 0.25 0.27 0.29 0.28 0.28 0.29 0.29 0.30 0.26 0.24 0.18 0.13 0.10 0.04 0.02 0.02 0.01 0.00 0.00 0.00 0.00 0.00 0.00 0.00 0.00 0.00 0.00 0.00 0.01 0.01 0.01 0.02 0.04 0.05 0.04 0.04 0.05 0.08
0.16 0.22 0.30 0.28 0.27 0.40 0.52 0.55 0.50 0.40 0.36 0.29 0.23 0.18 0.13 0.10 0.09 0.06 0.03 0.02 0.04 0.05 0.03 0.01 0.00 0.00 0.00 0.00 0.00 0.00 0.01 0.01 0.02 0.03 0.02 0.01 0.01 0.02 0.05 0.07 0.03 0.02 0.03
0.38 0.46 0.46 0.48 0.52 0.55 0.57 0.51 0.40 0.30 0.25 0.19 0.15 0.13 0.11 0.10 0.08 0.07 0.07 0.06 0.04 0.04 0.03 0.00 0.00 0.00 0.00 0.00 0.00 0.00 0.01 0.01 0.01 0.02 0.01 0.01 0.00 0.00 0.03 0.06 0.05 0.02 0.02
0.55 0.58 0.60 0.52 0.39 0.30 0.33 0.38 0.42 0.47 0.46 0.39 0.34 0.27 0.18 0.16 0.13 0.11 0.09 0.06 0.04 0.02 0.02 0.01 0.00 0.00 0.00 0.00 0.00 0.00 0.00 0.01 0.02 0.01 0.01 0.01 0.01 0.00 0.01 0.02 0.03 0.03 0.02
1.15 0.90 0.68 0.45 0.30 0.19 0.13 0.13 0.19 0.21 0.24 0.27 0.24 0.19 0.15 0.14 0.11 0.09 0.07 0.05 0.03 0.02 0.01 0.02 0.01 0.00 0.00 0.00 0.00 0.01 0.01 0.01 0.03 0.04 0.04 0.03 0.02 0.02 0.02 0.01 0.02 0.02 0.04
0.49 0.30 0.20 0.15 0.11 0.07 0.05 0.05 0.09 0.20 0.27 0.17 0.12 0.12 0.10 0.10 0.08 0.04 0.03 0.02 0.02 0.02 0.02 0.04 0.01 0.00 0.00 0.00 0.00 0.00 0.01 0.02 0.03 0.03 0.04 0.03 0.03 0.02 0.01 0.01 0.02 0.02 0.02
0.17 0.16 0.15 0.16 0.12 0.06 0.05 0.10 0.12 0.11 0.12 0.12 0.08 0.04 0.04 0.03 0.02 0.03 0.04 0.04 0.03 0.03 0.02 0.02 0.01 0.01 0.00 0.00 0.02 0.04 0.06 0.05 0.04 0.04 0.06 0.06 0.04 0.02 0.01 0.01 0.04 0.02 0.02
0.25 0.21 0.21 0.12 0.12 0.16 0.19 0.20 0.16 0.15 0.08 0.04 0.02 0.02 0.03 0.05 0.06 0.03 0.02 0.01 0.02 0.03 0.03 0.03 0.03 0.02 0.01 0.03 0.05 0.05 0.06 0.04 0.04 0.06 0.05 0.06 0.12 0.09 0.03 0.05 0.10 0.16 0.06
0.13 0.18 0.22 0.24 0.25 0.27 0.35 0.30 0.16 0.06 0.03 0.03 0.03 0.02 0.04 0.06 0.02 0.02 0.01 0.01 0.01 0.03 0.05 0.05 0.04 0.04 0.02 0.04 0.09 0.14 0.13 0.09 0.07 0.07 0.08 0.05 0.04 0.06 0.12 0.15 0.15 0.25 0.24
0.10 0.13 0.18 0.28 0.32 0.29 0.29 0.15 0.13 0.06 0.07 0.06 0.03 0.02 0.01 0.01 0.02 0.00 0.01 0.01 0.01 0.01 0.03 0.05 0.06 0.05 0.06 0.06 0.09 0.13 0.13 0.13 0.08 0.06 0.07 0.03 0.02 0.03 0.03 0.05 0.07 0.11 0.21
0.20 0.23 0.25 0.23 0.14 0.10 0.17 0.14 0.10 0.03 0.03 0.02 0.02 0.02 0.01 0.01 0.01 0.01 0.02 0.02 0.01 0.01 0.01 0.01 0.03 0.03 0.03 0.05 0.08 0.10 0.11 0.09 0.03 0.01 0.01 0.03 0.00 0.01 0.01 0.01 0.01 0.01 0.03
0.27 0.22 0.13 0.09 0.08 0.09 0.15 0.08 0.06 0.01 0.01 0.02 0.01 0.01 0.01 0.01 0.03 0.03 0.02 0.01 0.00 0.00 0.01 0.01 0.01 0.01 0.00 0.00 0.03 0.10 0.10 0.15 0.11 0.03 0.02 0.06 0.03 0.03 0.03 0.02 0.01 0.02 0.02
0.09 0.08 0.09 0.08 0.11 0.06 0.09 0.05 0.03 0.00 0.01 0.01 0.01 0.02 0.03 0.02 0.02 0.01 0.01 0.01 0.02 0.02 0.02 0.02 0.02 0.01 0.01 0.02 0.02 0.06 0.09 0.22 0.20 0.16 0.06 0.15 0.05 0.11 0.20 0.04 0.03 0.06 0.09